Weather History for Marrakech, Morocco

Change the Weather History Date:

Friday, February 21, 2014

  Actual Average Record
Temperature  
Mean Temperature 56 °F -  
Max Temperature 69 °F 71 °F 80 °F (2001)
Min Temperature 42 °F 48 °F 41 °F (2003)
Degree Days  
Heating Degree Days 10    
Growing Degree Days 6 (Base 50)    
Moisture  
Dew Point 44 °F    
Average Humidity 64    
Maximum Humidity 94    
Minimum Humidity 20    
Precipitation  
Precipitation 0.00 in 0.05 in - ()
Sea Level Pressure  
Sea Level Pressure 30.22 in    
Wind  
Wind Speed 3 mph ()    
Max Wind Speed 10 mph    
Max Gust Speed -    
Visibility 5.9 miles    
Events      
Averages and records for this station are not official NWS values.
T = Trace of Precipitation, MM = Missing Value Source: Averaged Metar Reports

Daily Weather History Graph

Daily Weather History Graph

Search for Another Location

Airport:

Trip Planner

Search our weather history database for the weather conditions in past years. The results will help you decide how hot, cold, wet, or windy it might be!

Date:

Astronomy

Feb. 21, 2014 Rise Set
Actual Time 7:08 AM WET 6:23 PM WET
Civil Twilight 6:43 AM WET 6:48 PM WET
Nautical Twilight 6:15 AM WET 7:16 PM WET
Astronomical Twilight 5:46 AM WET 7:45 PM WET
Moon No Moon Rise 10:46 AM WET (2/21)
Length of Visible Light 12h 05m
Length of Day
11h 15m
Waning Gibbous, 63% of the Moon is Illuminated
Feb 21
Waning Gibbous
Feb 22
Last Quarter
Mar 1
New
Mar 8
First Quarter
Mar 16
Full

Hourly Weather History & Observations

Time (WET) Temp. Windchill Dew Point Humidity Pressure Visibility Wind Dir Wind Speed Gust Speed Precip Events Conditions
12:00 AM 52 °F - 42 °F 61% 30.27 in 6 mi ESE 1.2 mph - -  
12:00 AM 51.8 °F - 42.8 °F 71% 30.24 in - East 1.2 mph - N/A   Clear
12:30 AM 51.8 °F - 42.8 °F 71% 30.24 in - ESE 3.5 mph - N/A   Clear
1:00 AM 50.0 °F - 41.0 °F 71% 30.24 in - East 2.3 mph - N/A   Clear
1:30 AM 50.0 °F - 42.8 °F 76% 30.24 in - NNE 2.3 mph - N/A   Clear
2:00 AM 50.0 °F - 42.8 °F 76% 30.21 in - Variable 1.2 mph - N/A   Clear
2:30 AM 48.2 °F - 42.8 °F 82% 30.21 in - East 2.3 mph - N/A   Clear
3:00 AM 47 °F - 42 °F 76% 30.25 in 6 mi East 3.5 mph - -  
3:00 AM 46.4 °F 44.3 °F 41.0 °F 81% 30.21 in - East 4.6 mph - N/A   Clear
3:30 AM 44.6 °F 43.1 °F 41.0 °F 87% 30.21 in 6.2 mi ESE 3.5 mph - N/A   Unknown
4:00 AM 46.4 °F - 41.0 °F 81% 30.21 in - ENE 2.3 mph - N/A   Clear
4:30 AM 44.6 °F - 41.0 °F 87% 30.21 in - East 2.3 mph - N/A   Clear
5:00 AM 44.6 °F 43.1 °F 41.0 °F 87% 30.21 in - ESE 3.5 mph - N/A   Clear
5:30 AM 44.6 °F - 41.0 °F 87% 30.21 in - SE 2.3 mph - N/A   Clear
6:00 AM 45 °F - 42 °F 84% 30.25 in 6 mi Calm Calm - -  
6:00 AM 44.6 °F - 41.0 °F 87% 30.21 in - Calm Calm - N/A   Clear
6:30 AM 44.6 °F - 41.0 °F 87% 30.21 in - Variable 1.2 mph - N/A   Clear
7:00 AM 42.8 °F - 41.0 °F 93% 30.21 in - East 1.2 mph - N/A   Clear
7:30 AM 42.8 °F - 41.0 °F 93% 30.24 in - SSE 2.3 mph - N/A   Clear
8:00 AM 46.4 °F - 42.8 °F 87% 30.24 in - NE 1.2 mph - N/A   Clear
8:30 AM 50.0 °F - 44.6 °F 82% 30.24 in 5.6 mi Calm Calm - N/A   Unknown
9:00 AM 54 °F - 44 °F 60% 30.27 in 6 mi Calm Calm - -  
9:00 AM 53.6 °F - 44.6 °F 72% 30.24 in 5.6 mi Calm Calm - N/A   Unknown
9:30 AM 55.4 °F - 46.4 °F 72% 30.27 in - Variable 2.3 mph - N/A   Clear
10:00 AM 59.0 °F - 46.4 °F 63% 30.27 in 3.1 mi Variable 1.2 mph - N/A   Unknown
10:30 AM 59.0 °F - 46.4 °F 63% 30.27 in - Variable 2.3 mph - N/A   Clear
11:00 AM 60.8 °F - 46.4 °F 59% 30.27 in - NNW 3.5 mph - N/A   Clear
11:30 AM 60.8 °F - 46.4 °F 59% 30.27 in - Variable 3.5 mph - N/A   Clear
12:00 PM 64 °F - 46 °F 40% 30.23 in 6 mi NNW 3.5 mph - -  
12:00 PM 62.6 °F - 44.6 °F 52% 30.24 in - Variable 3.5 mph - N/A   Clear
12:30 PM 64.4 °F - 44.6 °F 49% 30.24 in - North 3.5 mph - N/A   Clear
1:00 PM 66.2 °F - 41.0 °F 40% 30.24 in - NW 4.6 mph - N/A   Clear
1:30 PM 68.0 °F - 41.0 °F 37% 30.21 in - WNW 5.8 mph - N/A   Clear
2:00 PM 68.0 °F - 41.0 °F 37% 30.21 in - Variable 3.5 mph - N/A   Clear
2:30 PM 68.0 °F - 39.2 °F 35% 30.21 in - NNW 4.6 mph - N/A   Clear
3:00 PM 69 °F - 37 °F 20% 30.16 in 6 mi NNW 5.8 mph - -  
3:00 PM 68.0 °F - 37.4 °F 33% 30.18 in - WNW 5.8 mph - N/A   Clear
3:30 PM 69.8 °F - 41.0 °F 35% 30.18 in - North 4.6 mph - N/A   Clear
4:00 PM 69.8 °F - 41.0 °F 35% 30.18 in - NW 4.6 mph - N/A   Clear
4:30 PM 69.8 °F - 42.8 °F 38% 30.18 in - North 5.8 mph - N/A   Clear
5:00 PM 69.8 °F - 41.0 °F 35% 30.18 in - Variable 4.6 mph - N/A   Clear
5:30 PM 68.0 °F - 41.0 °F 37% 30.18 in 6.2 mi North 6.9 mph - N/A   Partly Cloudy
6:00 PM 67 °F - 39 °F 25% 30.16 in 6 mi North 4.6 mph - -   Scattered Clouds
6:00 PM 68.0 °F - 39.2 °F 35% 30.18 in 6.2 mi North 4.6 mph - N/A   Partly Cloudy
7:00 PM 64.4 °F - 42.8 °F 45% 30.21 in 6.2 mi North 5.8 mph - N/A   Partly Cloudy
7:30 PM 62.6 °F - 46.4 °F 55% 30.21 in 6.2 mi NNE 8.1 mph - N/A   Partly Cloudy
8:00 PM 62.6 °F - 48.2 °F 59% 30.21 in 6.2 mi NNE 8.1 mph - N/A   Partly Cloudy
8:30 PM 60.8 °F - 48.2 °F 63% 30.21 in 6.2 mi NNE 6.9 mph - N/A   Partly Cloudy
9:00 PM 59 °F - 49 °F 60% 30.22 in 6 mi NNE 9.2 mph - -   Scattered Clouds
9:00 PM 59.0 °F - 48.2 °F 67% 30.24 in 6.2 mi NNE 10.4 mph - N/A   Partly Cloudy
9:30 PM 59.0 °F - 50.0 °F 72% 30.24 in - NE 8.1 mph - N/A   Clear
10:00 PM 57.2 °F - 51.8 °F 82% 30.24 in - NNE 8.1 mph - N/A   Clear
10:30 PM 57.2 °F - 51.8 °F 82% 30.24 in - NE 8.1 mph - N/A   Clear
11:00 PM 55.4 °F - 51.8 °F 88% 30.24 in - NE 8.1 mph - N/A   Clear
11:30 PM 53.6 °F - 51.8 °F 94% 30.24 in - ENE 8.1 mph - N/A   Clear